Weather History for KEAR - April, 2014

Change the Weather History Date:

Saturday, April 26, 2014

  Actual Average Record
Temperature  
Mean Temperature 64 °F 52 °F  
Max Temperature 82 °F 66 °F 94 °F (1989)
Min Temperature 45 °F 40 °F 25 °F (1992)
Degree Days  
Heating Degree Days 1 13  
Month to date heating degree days 358 448  
Since 1 July heating degree days 6220  
Cooling Degree Days 0 0  
Month to date cooling degree days 0  
Year to date cooling degree days 0  
Growing Degree Days 13 (Base 50)    
Moisture  
Dew Point 49 °F    
Average Humidity 63    
Maximum Humidity 86    
Minimum Humidity 40    
Precipitation  
Precipitation 0.00 in - 1.06 in (1944)
Sea Level Pressure  
Sea Level Pressure 29.51 in    
Wind  
Wind Speed 17 mph (SE)    
Max Wind Speed 27 mph    
Max Gust Speed 33 mph    
Visibility 10 miles    
Events      
T = Trace of Precipitation, MM = Missing Value Source: NWS Daily Summary

Daily Weather History Graph

Daily Weather History Graph

Search for Another Location

Airport or City:

Trip Planner

Search our weather history database for the weather conditions in past years. The results will help you decide how hot, cold, wet, or windy it might be!

Date:

Astronomy

Apr. 26, 2014 Rise Set
Actual Time 6:41 AM CDT 8:27 PM CDT
Civil Twilight 6:11 AM CDT 8:56 PM CDT
Nautical Twilight 5:36 AM CDT 9:32 PM CDT
Astronomical Twilight 4:58 AM CDT 10:10 PM CDT
Moon 5:07 AM CDT (4/26) 5:56 PM CDT (4/26)
Length of Visible Light 14h 44m
Length of Day
13h 45m
Waning Crescent, 8% of the Moon is Illuminated
Apr 26
Waning Crescent
Apr 29
New
May 6
First Quarter
May 14
Full
May 21
Last Quarter

Hourly Weather History & Observations

Time (CDT) Temp. Windchill Dew Point Humidity Pressure Visibility Wind Dir Wind Speed Gust Speed Precip Events Conditions
12:15 AM 50.0 °F - 42.8 °F 76% 29.74 in 10.0 mi East 3.5 mph - N/A   Clear
12:35 AM 50.0 °F - 42.8 °F 76% 29.73 in 10.0 mi ENE 6.9 mph - N/A   Clear
12:55 AM 50.0 °F - 42.8 °F 76% 29.72 in 10.0 mi East 9.2 mph - N/A   Clear
1:15 AM 48.2 °F - 41.0 °F 76% 29.71 in 10.0 mi ESE 9.2 mph - N/A   Clear
1:35 AM 50.0 °F - 42.8 °F 76% 29.71 in 10.0 mi ESE 9.2 mph - N/A   Clear
1:55 AM 48.2 °F - 41.0 °F 76% 29.71 in 10.0 mi ESE 9.2 mph - N/A   Clear
2:15 AM 48.2 °F - 41.0 °F 76% 29.70 in 10.0 mi ESE 8.1 mph - N/A   Clear
2:35 AM 48.2 °F - 41.0 °F 76% 29.69 in 10.0 mi ESE 8.1 mph - N/A   Clear
2:55 AM 46.4 °F 42.9 °F 39.2 °F 76% 29.68 in 10.0 mi ENE 6.9 mph - N/A   Clear
3:15 AM 46.4 °F 41.9 °F 39.2 °F 76% 29.67 in 10.0 mi East 9.2 mph - N/A   Clear
3:35 AM 46.4 °F 42.4 °F 41.0 °F 81% 29.67 in 10.0 mi ESE 8.1 mph - N/A   Clear
3:55 AM 48.2 °F - 41.0 °F 76% 29.66 in 10.0 mi ESE 8.1 mph - N/A   Clear
4:15 AM 48.2 °F - 41.0 °F 76% 29.65 in 10.0 mi East 3.5 mph - N/A   Clear
4:35 AM 46.4 °F 44.3 °F 39.2 °F 76% 29.65 in 10.0 mi East 4.6 mph - N/A   Clear
4:55 AM 44.6 °F 42.2 °F 39.2 °F 81% 29.64 in 10.0 mi East 4.6 mph - N/A   Clear
5:15 AM 44.6 °F 40.7 °F 39.2 °F 81% 29.63 in 10.0 mi ESE 6.9 mph - N/A   Clear
5:35 AM 46.4 °F 42.9 °F 41.0 °F 81% 29.63 in 10.0 mi ESE 6.9 mph - N/A   Clear
5:55 AM 46.4 °F 42.9 °F 42.8 °F 87% 29.63 in 10.0 mi SE 6.9 mph - N/A   Clear
6:15 AM 48.2 °F - 42.8 °F 82% 29.62 in 10.0 mi SE 8.1 mph - N/A   Clear
6:35 AM 48.2 °F - 42.8 °F 82% 29.61 in 10.0 mi SE 9.2 mph - N/A   Clear
6:55 AM 48.2 °F - 42.8 °F 82% 29.61 in 10.0 mi SE 8.1 mph - N/A   Clear
7:15 AM 50.0 °F - 44.6 °F 82% 29.61 in 10.0 mi ESE 9.2 mph - N/A   Clear
7:35 AM 51.8 °F - 44.6 °F 76% 29.60 in 10.0 mi ESE 11.5 mph - N/A   Clear
7:55 AM 53.6 °F - 44.6 °F 72% 29.60 in 10.0 mi ESE 13.8 mph - N/A   Clear
8:15 AM 53.6 °F - 44.6 °F 72% 29.60 in 10.0 mi SE 12.7 mph - N/A   Clear
8:35 AM 53.6 °F - 44.6 °F 72% 29.60 in 10.0 mi SE 13.8 mph 19.6 mph N/A   Clear
8:55 AM 55.4 °F - 44.6 °F 67% 29.59 in 10.0 mi SE 15.0 mph - N/A   Clear
9:15 AM 57.2 °F - 44.6 °F 63% 29.59 in 10.0 mi SE 18.4 mph - N/A   Clear
9:35 AM 59.0 °F - 44.6 °F 59% 29.58 in 10.0 mi SE 15.0 mph - N/A   Clear
9:55 AM 59.0 °F - 44.6 °F 59% 29.58 in 10.0 mi SE 17.3 mph 24.2 mph N/A   Clear
10:15 AM 60.8 °F - 46.4 °F 59% 29.57 in 10.0 mi SE 16.1 mph - N/A   Partly Cloudy
10:35 AM 62.6 °F - 46.4 °F 55% 29.56 in 10.0 mi SE 16.1 mph - N/A   Partly Cloudy
10:55 AM 62.6 °F - 46.4 °F 55% 29.55 in 10.0 mi SE 17.3 mph 21.9 mph N/A   Clear
11:15 AM 64.4 °F - 46.4 °F 52% 29.54 in 10.0 mi SE 18.4 mph - N/A   Clear
11:35 AM 66.2 °F - 48.2 °F 52% 29.54 in 10.0 mi ESE 16.1 mph 21.9 mph N/A   Clear
11:55 AM 68.0 °F - 48.2 °F 49% 29.53 in 10.0 mi SE 19.6 mph - N/A   Clear
12:15 PM 69.8 °F - 48.2 °F 46% 29.53 in 10.0 mi SE 16.1 mph 24.2 mph N/A   Clear
12:35 PM 69.8 °F - 48.2 °F 46% 29.52 in 10.0 mi SE 20.7 mph 25.3 mph N/A   Clear
12:55 PM 71.6 °F - 48.2 °F 43% 29.50 in 10.0 mi SE 17.3 mph 26.5 mph N/A   Clear
1:15 PM 71.6 °F - 48.2 °F 43% 29.50 in 10.0 mi ESE 19.6 mph 25.3 mph N/A   Clear
1:35 PM 73.4 °F - 50.0 °F 44% 29.49 in 10.0 mi SE 23.0 mph 31.1 mph N/A   Clear
1:55 PM 73.4 °F - 50.0 °F 44% 29.49 in 10.0 mi South 23.0 mph 31.1 mph N/A   Clear
2:15 PM 77.0 °F - 51.8 °F 41% 29.48 in 10.0 mi SSE 19.6 mph 38.0 mph N/A   Clear
2:35 PM 75.2 °F - 51.8 °F 44% 29.47 in 10.0 mi SSE 20.7 mph 35.7 mph N/A   Clear
2:55 PM 75.2 °F - 51.8 °F 44% 29.46 in 10.0 mi SE 19.6 mph 28.8 mph N/A   Clear
3:15 PM 77.0 °F - 53.6 °F 44% 29.45 in 10.0 mi SE 23.0 mph 29.9 mph N/A   Clear
3:35 PM 75.2 °F - 53.6 °F 47% 29.44 in 10.0 mi SE 21.9 mph 25.3 mph N/A   Clear
3:55 PM 77.0 °F - 53.6 °F 44% 29.43 in 10.0 mi SE 25.3 mph 31.1 mph N/A   Clear
4:15 PM 78.8 °F - 53.6 °F 42% 29.41 in 10.0 mi SE 25.3 mph 31.1 mph N/A   Clear
4:35 PM 80.6 °F - 55.4 °F 42% 29.41 in 10.0 mi SE 23.0 mph 29.9 mph N/A   Clear
4:55 PM 80.6 °F - 55.4 °F 42% 29.40 in 10.0 mi SE 23.0 mph 27.6 mph N/A   Clear
5:15 PM 80.6 °F - 55.4 °F 42% 29.39 in 10.0 mi SE 21.9 mph 29.9 mph N/A   Clear
5:35 PM 80.6 °F - 55.4 °F 42% 29.38 in 10.0 mi SE 25.3 mph 33.4 mph N/A   Clear
5:55 PM 82.4 °F - 55.4 °F 39% 29.37 in 10.0 mi SE 26.5 mph 33.4 mph N/A   Clear
6:15 PM 80.6 °F - 55.4 °F 42% 29.36 in 10.0 mi SSE 23.0 mph 33.4 mph N/A   Clear
6:35 PM 80.6 °F - 55.4 °F 42% 29.36 in 10.0 mi SSE 28.8 mph 39.1 mph N/A   Clear
6:55 PM 78.8 °F - 55.4 °F 44% 29.35 in 10.0 mi SSE 26.5 mph 33.4 mph N/A   Clear
7:15 PM 78.8 °F - 53.6 °F 42% 29.35 in 10.0 mi SSE 26.5 mph 35.7 mph N/A   Clear
7:35 PM 78.8 °F - 55.4 °F 44% 29.35 in 10.0 mi SSE 25.3 mph 32.2 mph N/A   Clear
7:55 PM 78.8 °F - 55.4 °F 44% 29.35 in 10.0 mi SSE 25.3 mph 31.1 mph N/A   Clear
8:15 PM 75.2 °F - 57.2 °F 53% 29.34 in 10.0 mi SSE 25.3 mph 32.2 mph N/A   Clear
8:35 PM 75.2 °F - 57.2 °F 53% 29.35 in 10.0 mi SSE 21.9 mph 27.6 mph N/A   Clear
8:55 PM 73.4 °F - 57.2 °F 57% 29.34 in 10.0 mi SSE 19.6 mph 26.5 mph N/A   Clear
9:15 PM 73.4 °F - 57.2 °F 57% 29.35 in 10.0 mi SSE 20.7 mph 26.5 mph N/A   Clear
9:35 PM 73.4 °F - 59.0 °F 61% 29.35 in 10.0 mi SSE 24.2 mph 28.8 mph N/A   Clear
9:55 PM 73.4 °F - 60.8 °F 65% 29.35 in 10.0 mi SE 23.0 mph 33.4 mph N/A   Clear
10:15 PM 73.4 °F - 60.8 °F 65% 29.35 in 10.0 mi SSE 23.0 mph 27.6 mph N/A   Clear
10:35 PM 73.4 °F - 60.8 °F 65% 29.35 in 10.0 mi SSE 20.7 mph 29.9 mph N/A   Clear
10:55 PM 71.6 °F - 59.0 °F 64% 29.34 in 10.0 mi SSE 21.9 mph 31.1 mph N/A   Clear
11:15 PM 71.6 °F - 57.2 °F 60% 29.34 in 10.0 mi SSE 20.7 mph 28.8 mph N/A   Clear
11:35 PM 71.6 °F - 57.2 °F 60% 29.34 in 10.0 mi SSE 23.0 mph 27.6 mph N/A   Clear
11:55 PM 71.6 °F - 57.2 °F 60% 29.34 in 10.0 mi SSE 20.7 mph 27.6 mph N/A   Clear